TimeEDT,TemperatureF,Dew PointF,Humidity,Sea Level PressureIn,VisibilityMPH,Wind Direction,Wind SpeedMPH,Gust SpeedMPH,PrecipitationIn,Events,Conditions,WindDirDegrees,DateUTC
12:15 AM,55.4,44.6,67,30.35,10.0,South,10.4,-,N/A,,Clear,190,2012-10-14 04:15:00
12:35 AM,55.4,44.6,67,30.35,10.0,SSW,8.1,-,N/A,,Clear,200,2012-10-14 04:35:00
1:15 AM,55.4,46.4,72,30.33,10.0,South,6.9,-,N/A,,Clear,190,2012-10-14 05:15:00
1:35 AM,55.4,46.4,72,30.32,10.0,South,6.9,-,N/A,,Clear,190,2012-10-14 05:35:00
1:55 AM,55.4,46.4,72,30.32,10.0,South,9.2,-,N/A,,Clear,190,2012-10-14 05:55:00
2:15 AM,55.4,46.4,72,30.31,10.0,South,8.1,-,N/A,,Clear,190,2012-10-14 06:15:00
2:35 AM,55.4,46.4,72,30.31,10.0,South,9.2,-,N/A,,Clear,190,2012-10-14 06:35:00
2:55 AM,55.4,46.4,72,30.30,10.0,South,8.1,-,N/A,,Clear,180,2012-10-14 06:55:00
3:15 AM,55.4,46.4,72,30.29,10.0,South,10.4,-,N/A,,Clear,190,2012-10-14 07:15:00
3:35 AM,57.2,48.2,72,30.29,10.0,SSW,9.2,16.1,N/A,,Clear,200,2012-10-14 07:35:00
3:55 AM,55.4,48.2,77,30.28,10.0,SSW,8.1,-,N/A,,Clear,200,2012-10-14 07:55:00
4:15 AM,55.4,48.2,77,30.28,10.0,South,10.4,-,N/A,,Clear,190,2012-10-14 08:15:00
4:35 AM,55.4,48.2,77,30.28,10.0,SSW,10.4,-,N/A,,Clear,200,2012-10-14 08:35:00
4:55 AM,55.4,48.2,77,30.27,10.0,South,9.2,-,N/A,,Clear,190,2012-10-14 08:55:00
5:15 AM,57.2,48.2,72,30.27,10.0,SSW,9.2,-,N/A,,Clear,200,2012-10-14 09:15:00
5:35 AM,55.4,48.2,77,30.27,10.0,SSW,10.4,-,N/A,,Clear,200,2012-10-14 09:35:00
5:55 AM,55.4,50.0,82,30.27,10.0,SSW,11.5,-,N/A,,Clear,210,2012-10-14 09:55:00
6:15 AM,55.4,50.0,82,30.27,10.0,SW,10.4,-,N/A,,Clear,220,2012-10-14 10:15:00
6:35 AM,55.4,51.8,88,30.27,10.0,SSW,9.2,-,N/A,,Clear,200,2012-10-14 10:35:00
6:55 AM,55.4,51.8,88,30.26,10.0,SSW,10.4,-,N/A,,Clear,200,2012-10-14 10:55:00
7:15 AM,55.4,51.8,88,30.27,10.0,SSW,10.4,-,N/A,,Clear,210,2012-10-14 11:15:00
7:35 AM,57.2,51.8,82,30.28,10.0,SSW,9.2,-,N/A,,Clear,210,2012-10-14 11:35:00
7:55 AM,57.2,51.8,82,30.28,10.0,SSW,10.4,-,N/A,,Clear,200,2012-10-14 11:55:00
8:15 AM,59.0,51.8,77,30.28,10.0,SSW,12.7,-,N/A,,Clear,210,2012-10-14 12:15:00
8:35 AM,60.8,53.6,77,30.28,10.0,SSW,12.7,-,N/A,,Clear,200,2012-10-14 12:35:00
8:55 AM,62.6,53.6,72,30.28,10.0,SSW,11.5,-,N/A,,Clear,210,2012-10-14 12:55:00
9:15 AM,62.6,53.6,72,30.28,10.0,SSW,13.8,17.3,N/A,,Clear,210,2012-10-14 13:15:00
9:35 AM,64.4,51.8,64,30.27,10.0,SW,13.8,19.6,N/A,,Clear,220,2012-10-14 13:35:00
9:55 AM,64.4,51.8,64,30.28,10.0,SSW,15.0,21.9,N/A,,Clear,200,2012-10-14 13:55:00
10:15 AM,64.4,50.0,59,30.27,10.0,SSW,17.3,21.9,N/A,,Clear,210,2012-10-14 14:15:00
10:35 AM,66.2,51.8,60,30.27,10.0,SSW,15.0,-,N/A,,Clear,200,2012-10-14 14:35:00
10:55 AM,66.2,51.8,60,30.26,10.0,SW,15.0,-,N/A,,Clear,220,2012-10-14 14:55:00
11:15 AM,66.2,51.8,60,30.26,10.0,SW,12.7,-,N/A,,Clear,220,2012-10-14 15:15:00
11:35 AM,69.8,51.8,53,30.26,10.0,SSW,13.8,-,N/A,,Clear,200,2012-10-14 15:35:00
11:55 AM,69.8,51.8,53,30.24,10.0,SW,17.3,23.0,N/A,,Clear,220,2012-10-14 15:55:00
12:15 PM,71.6,53.6,53,30.23,10.0,SSW,16.1,-,N/A,,Clear,210,2012-10-14 16:15:00
12:35 PM,71.6,51.8,50,30.22,10.0,SW,13.8,21.9,N/A,,Clear,220,2012-10-14 16:35:00
12:55 PM,71.6,51.8,50,30.21,10.0,SW,17.3,25.3,N/A,,Clear,230,2012-10-14 16:55:00
1:15 PM,71.6,53.6,53,30.20,10.0,South,16.1,21.9,N/A,,Clear,180,2012-10-14 17:15:00
1:35 PM,73.4,53.6,50,30.19,10.0,SSW,13.8,20.7,N/A,,Clear,200,2012-10-14 17:35:00
1:55 PM,73.4,51.8,47,30.17,10.0,SW,15.0,19.6,N/A,,Clear,220,2012-10-14 17:55:00
2:15 PM,73.4,51.8,47,30.16,10.0,SSW,16.1,20.7,N/A,,Clear,210,2012-10-14 18:15:00
2:35 PM,73.4,53.6,50,30.15,10.0,South,10.4,-,N/A,,Clear,180,2012-10-14 18:35:00
2:55 PM,71.6,57.2,60,30.15,10.0,South,10.4,-,N/A,,Clear,180,2012-10-14 18:55:00
3:15 PM,71.6,57.2,60,30.14,10.0,South,12.7,19.6,N/A,,Clear,190,2012-10-14 19:15:00
3:35 PM,71.6,57.2,60,30.13,10.0,South,13.8,-,N/A,,Clear,180,2012-10-14 19:35:00
4:15 PM,69.8,57.2,64,30.11,10.0,South,16.1,20.7,N/A,,Clear,170,2012-10-14 20:15:00
4:35 PM,69.8,57.2,64,30.11,10.0,South,11.5,17.3,N/A,,Clear,180,2012-10-14 20:35:00
4:55 PM,69.8,57.2,64,30.11,10.0,South,12.7,-,N/A,,Clear,180,2012-10-14 20:55:00
5:15 PM,68.0,57.2,68,30.10,10.0,South,13.8,19.6,N/A,,Clear,170,2012-10-14 21:15:00
5:35 PM,66.2,57.2,73,30.09,10.0,South,13.8,-,N/A,,Clear,180,2012-10-14 21:35:00
5:55 PM,66.2,57.2,73,30.09,10.0,South,12.7,-,N/A,,Clear,180,2012-10-14 21:55:00
6:15 PM,66.2,57.2,73,30.09,10.0,South,15.0,-,N/A,,Clear,190,2012-10-14 22:15:00
6:35 PM,64.4,57.2,77,30.09,10.0,South,13.8,19.6,N/A,,Clear,190,2012-10-14 22:35:00
6:55 PM,64.4,57.2,77,30.08,10.0,South,12.7,-,N/A,,Clear,180,2012-10-14 22:55:00
7:15 PM,64.4,57.2,77,30.08,10.0,South,13.8,19.6,N/A,,Clear,190,2012-10-14 23:15:00
7:35 PM,64.4,57.2,77,30.09,10.0,South,15.0,21.9,N/A,,Clear,190,2012-10-14 23:35:00
7:55 PM,64.4,57.2,77,30.08,10.0,South,11.5,17.3,N/A,,Clear,190,2012-10-14 23:55:00
8:15 PM,64.4,57.2,77,30.08,10.0,South,13.8,18.4,N/A,,Clear,190,2012-10-15 00:15:00
8:35 PM,64.4,57.2,77,30.07,10.0,South,11.5,17.3,N/A,,Clear,180,2012-10-15 00:35:00
8:55 PM,64.4,57.2,77,30.07,10.0,South,11.5,-,N/A,,Clear,180,2012-10-15 00:55:00
9:15 PM,64.4,57.2,77,30.07,10.0,South,12.7,-,N/A,,Clear,180,2012-10-15 01:15:00
9:35 PM,64.4,57.2,77,30.06,10.0,South,11.5,-,N/A,,Clear,180,2012-10-15 01:35:00
9:55 PM,64.4,57.2,77,30.06,10.0,South,12.7,18.4,N/A,,Clear,190,2012-10-15 01:55:00
10:15 PM,64.4,59.0,83,30.06,10.0,South,12.7,-,N/A,,Clear,190,2012-10-15 02:15:00
10:35 PM,64.4,59.0,83,30.05,10.0,South,12.7,23.0,N/A,,Clear,190,2012-10-15 02:35:00
10:55 PM,64.4,57.2,77,30.04,10.0,South,12.7,20.7,N/A,,Clear,190,2012-10-15 02:55:00
11:15 PM,64.4,59.0,83,30.03,10.0,South,15.0,21.9,N/A,,Clear,180,2012-10-15 03:15:00
11:35 PM,64.4,59.0,83,30.02,10.0,South,13.8,20.7,N/A,,Clear,180,2012-10-15 03:35:00
11:55 PM,64.4,59.0,83,30.01,10.0,South,12.7,19.6,N/A,,Clear,180,2012-10-15 03:55:00